EW4283 Weather Reports


time (UTC)temp
F
wind
direction
speed
knots
gust
knots
rain 1hr
in
rain 24hr
in
rain mn
in
humidity
%
barometer
mb
20260510094521 57 49 0.0 1.7 0.00 0.16 0.14 89 1011.5
20260510093030 58 15 0.0 0.9 0.00 0.16 0.14 86 1011.8
20260510091517 59 16 0.0 1.7 0.00 0.16 0.14 85 1011.7
20260510090025 59 300 0.9 3.5 0.00 0.16 0.14 84 1011.7
20260510084521 59 340 3.5 5.2 0.00 0.16 0.14 84 1011.5
20260510083015 59 349 0.0 6.1 0.00 0.16 0.14 85 1011.3
20260510081514 60 11 1.7 4.3 0.00 0.16 0.14 84 1011.0
20260510074512 60 191 3.5 7.0 0.00 0.16 0.14 83 1009.4
20260510073011 61 187 6.1 8.7 0.00 0.16 0.14 83 1009.2
20260510071510 61 200 5.2 13.9 0.00 0.16 0.14 84 1009.2
20260510070010 61 195 8.7 13.0 0.01 0.16 0.14 84 1008.7
20260510064509 60 192 10.4 15.6 0.04 0.16 0.14 85 1008.4
20260510063011 59 210 11.3 18.2 0.07 0.16 0.14 88 1008.2
20260510061506 58 139 10.4 16.5 0.11 0.16 0.14 90 1008.6
20260510060101 59 199 7.0 11.3 0.13 0.15 0.13 91 1011.0
20260510054556 60 172 1.7 3.5 0.11 0.12 0.10 91 1012.4
20260510053051 61 146 0.0 1.7 0.08 0.09 0.07 87 1014.1
20260510051547 62 229 2.6 5.2 0.04 0.05 0.03 84 1014.5
20260510050042 64 240 2.6 8.7 0.01 0.02 0.00 76 1014.3
20260510044555 67 314 1.7 3.5 0.00 0.01 0.01 66 1014.2
20260510043038 69 334 2.6 13.0 0.00 0.01 0.01 60 1013.7
20260510041534 69 288 0.9 2.6 0.00 0.01 0.01 56 1013.0
20260510040033 69 1 2.6 9.6 0.00 0.01 0.01 55 1012.8
20260510034528 70 21 1.7 4.3 0.00 0.01 0.01 57 1011.3
20260510033025 70 203 0.0 0.9 0.00 0.01 0.01 54 1010.7
20260510031527 70 130 0.0 2.6 0.00 0.01 0.01 53 1009.8
20260510030034 70 95 0.9 3.5 0.00 0.01 0.01 52 1009.5
20260510024525 70 79 0.0 3.5 0.00 0.01 0.01 53 1009.3
20260510023023 70 127 0.0 3.5 0.00 0.01 0.01 54 1009.2
20260510021527 70 134 0.0 2.6 0.00 0.01 0.01 56 1009.1
20260510020025 70 143 0.0 1.7 0.00 0.01 0.01 56 1008.3
20260510014521 70 91 0.0 2.6 0.00 0.01 0.01 54 1007.7
20260510013024 71 284 0.0 2.6 0.00 0.01 0.01 53 1007.5
20260510011520 72 44 0.0 0.9 0.00 0.01 0.01 50 1007.3
20260510010019 75 124 0.0 0.9 0.00 0.01 0.01 45 1007.2
20260510004518 79 214 0.0 1.7 0.00 0.01 0.01 40 1007.1
20260510003023 81 184 0.0 0.9 0.00 0.01 0.01 38 1007.2
20260510001517 81 118 0.9 6.1 0.00 0.01 0.01 36 1007.2
20260510000016 81 117 1.7 5.2 0.00 0.01 0.01 34 1007.0
20260509234516 82 200 0.9 4.3 0.00 0.01 0.01 35 1007.2
20260509233021 83 135 2.6 9.6 0.00 0.01 0.01 32 1007.2
20260509231514 83 198 3.5 9.6 0.00 0.01 0.01 31 1007.3
20260509230016 83 173 3.5 11.3 0.00 0.01 0.01 31 1007.2
20260509224510 84 149 5.2 9.6 0.00 0.61 0.01 29 1007.3
20260509223011 84 146 4.3 8.7 0.00 0.61 0.01 30 1007.3
20260509221511 85 153 2.6 7.8 0.00 0.61 0.01 32 1007.4
20260509220002 85 129 1.7 7.0 0.00 0.61 0.01 32 1007.4
20260509214602 85 184 3.5 7.0 0.00 0.61 0.01 33 1007.6
20260509213058 85 139 0.9 7.0 0.00 0.61 0.01 31 1007.6
20260509211557 86 154 0.9 5.2 0.00 0.61 0.01 29 1007.7
20260509210052 86 204 0.9 4.3 0.00 0.61 0.01 30 1007.9
20260509204548 85 98 0.0 4.3 0.00 0.61 0.01 32 1008.1
20260509203109 85 203 2.6 6.1 0.00 0.61 0.01 29 1008.4
20260509201544 85 203 2.6 7.8 0.00 0.61 0.01 28 1008.6
20260509200052 85 200 2.6 7.0 0.00 0.61 0.01 32 1008.8
20260509194540 85 56 0.9 7.0 0.00 0.61 0.01 38 1009.0
20260509193036 83 75 0.0 7.8 0.00 0.61 0.01 37 1009.1
20260509191537 84 46 0.9 6.1 0.00 0.61 0.01 37 1009.1
20260509190034 84 118 1.7 5.2 0.00 0.61 0.01 34 1009.2
20260509184535 83 204 0.0 9.6 0.00 0.61 0.01 39 1009.5
20260509183031 83 171 0.9 3.5 0.00 0.61 0.01 38 1009.6
20260509181531 83 241 2.6 6.1 0.00 0.61 0.01 36 1009.9
20260509180027 83 243 0.0 2.6 0.00 0.61 0.01 37 1010.1
20260509174525 81 186 3.5 6.1 0.00 0.61 0.01 37 1010.1
20260509173024 80 222 1.7 3.5 0.00 0.61 0.01 38 1010.3
20260509171523 81 153 3.5 7.8 0.00 0.61 0.01 35 1010.6
20260509170021 81 184 5.2 7.8 0.00 0.61 0.01 39 1010.7
20260509164519 80 152 4.3 7.0 0.00 0.61 0.01 40 1010.7
20260509163016 80 151 0.9 7.0 0.00 0.61 0.01 45 1010.8
20260509161511 78 158 1.7 6.1 0.00 0.61 0.01 49 1010.7
20260509160009 76 84 0.0 3.5 0.00 0.61 0.01 63 1010.7
20260509154513 76 99 0.0 2.6 0.00 0.61 0.01 64 1010.6
20260509153003 74 82 0.0 2.6 0.00 0.61 0.01 68 1010.4
20260509151607 72 93 0.0 1.7 0.00 0.61 0.01 69 1010.5
20260509150052 70 63 0.0 0.9 0.00 0.61 0.01 80 1010.4
20260509144548 68 67 0.0 1.7 0.00 0.61 0.01 88 1010.4
20260509143045 66 65 0.0 1.7 0.00 0.61 0.01 91 1010.4
20260509141540 64 41 0.0 1.7 0.00 0.61 0.01 94 1010.5
20260509140036 62 18 0.9 2.6 0.00 0.61 0.01 95 1010.5
20260509134533 61 357 0.9 2.6 0.00 0.61 0.01 96 1010.4
20260509133031 60 20 0.0 0.0 0.00 0.61 0.01 96 1010.5
20260509131527 58 44 0.0 1.7 0.00 0.61 0.01 96 1010.3
20260509130046 56 202 0.0 0.0 0.00 0.61 0.01 96 1010.2
20260509124524 53 202 0.0 0.0 0.00 0.61 0.01 96 1010.1
20260509123023 50 202 0.0 0.0 0.00 0.61 0.01 96 1010.0
20260509121524 49 202 0.0 0.0 0.00 0.61 0.01 96 1009.8
20260509120029 48 202 0.0 0.0 0.00 0.61 0.01 96 1009.7
20260509114520 48 202 0.0 0.0 0.00 0.61 0.01 95 1009.5
20260509113019 48 202 0.0 0.0 0.00 0.61 0.01 95 1009.3
20260509111517 49 202 0.0 0.0 0.00 0.61 0.01 96 1009.2
20260509110020 49 202 0.0 0.0 0.00 0.61 0.01 95 1009.4
20260509104514 49 202 0.0 0.0 0.00 0.61 0.01 95 1009.4
20260509103017 49 203 0.0 0.0 0.01 0.61 0.01 95 1009.3
20260509101511 49 203 0.0 0.0 0.01 0.61 0.01 95 1009.4
20260509100012 50 203 0.0 0.0 0.01 0.61 0.01 95 1009.6